Tracking 35275 objects as of 9-Sep-2026
HD Live streaming from Space Station
objects crossing your sky now

CZ-3C R/B

Track CZ-3C R/B now!
10-day predictions


NORAD ID: 37175
Int'l Code: 2010-050B
Launch date: October 1, 2010
Source: People's Republic of China (PRC)
Launch site: Xichang Space Center, China (XSC)

Note: This is a ROCKET BODY
Your satellite tracking list
Your tracking list is empty




NASA's NSSDC Master Catalog

Two Line Element Set (TLE):
1 37175U 10050B   10274.44032264 -.00000212 +12725-5 +00000-0 0  9996
2 37175 032.3647 328.2319 1929833 063.2084 179.2559 12.98827208000012
Source of the keplerian elements: AFSPC